Terminal Aerodrome Forecast
Issued by NWS

Home | Current Version | Previous Version | Text Only | Print | Product List | Glossary On
Versions: 1 2 3 4 5 6 7 8 9 10 11 12
904
FTAK31 PAJN 290520
TAFAWG
TAF
PAWG 290520Z 2906/3006 VRB06KT P6SM SKC
     FM300300 03010KT P6SM SKC WS020/06025KT
      AMD LTD TO CLD VIS AND WIND 2906/2915=

USA.gov is the U.S. government's official web portal to all federal, state and local government web resources and services.